Location: Waco, TX
(31.5480°N, 97.1670°W)
Time: 15:59:48
(UTC-06:00)

ISS - Pass Details

Date: 27 January 2021
Orbit: 417 x 422 km, 51.6° (Epoch: 07 March)

Event Time Altitude Azimuth Distance (km) Brightness Sun altitude
Rises 23:37:57 0° 303° (WNW) 2,370 - -70.3°
Reaches altitude 10° 23:40:14 10° 291° (WNW) 1,503 - -70.7°
Maximum altitude 23:43:09 27° 231° (SW) 836 - -71.2°
Drops below altitude 10° 23:46:03 10° 171° (S) 1,494 - -71.6°
Sets 23:48:19 0° 159° (SSE) 2,353 - -72.0°
